Flag for Portugal Weather past 2 weeks in Funchal, Madeira, Portugal

Now
66 °F

Passing clouds.


Feels Like: 66 °F
Forecast: 59 / 70 °F
Wind: 18 mph from Northeast

Location: Aeroporto Da Madeira

Current Time: Mar 30, 2015 at 3:36:02 PM

Latest Report: Mar 30, 2015 at 3:00 PM


Visibility: N/A

Pressure: 30.45 "Hg

Humidity: 56%

Dew point: 50 °F

Location of FunchalLocation

Historic Weather in Funchal — Graph

°F

Funchal temperature yesterday

Maximum temperature yesterday: 73 °F (at 2:00 PM)
Minimum temperature yesterday: 59 °F (at 12:00 AM)
Average temperature yesterday: 66 °F

Past Weeks' High & Low Weather Summary

 TemperatureHumidityPressure
High73 °F (Mar 29, 2:00 PM)88% (Mar 27, 11:30 PM)30.48 "Hg (Mar 27, 11:30 PM)
Low52 °F (Mar 16, 2:30 AM)19% (Mar 29, 6:30 PM)29.80 "Hg (Mar 22, 5:00 AM)
Average59 °F64%30.16 "Hg
* Reported Mar 15 1:00 PM — Mar 30 2:00 PM, Funchal, Weather by CustomWeather, © 2015

Note: Actual official high and low records may vary slightly from our data, if they occured in-between our weather recording intervals... More about our weather records

Advertising

Funchal weather history for previous 24 hours

 ConditionsComfort  
Time TempWeatherWind HumidityBarometerVisibility
2:00 PM
Mon, Mar 30
68 °FPassing clouds.18 mph53%30.45 "HgN/A
1:30 PM68 °FPassing clouds.17 mph53%30.45 "HgN/A
1:00 PM66 °FPassing clouds.18 mph64%30.48 "HgN/A
12:30 PM66 °FPassing clouds.18 mph60%30.48 "HgN/A
12:00 PM66 °FPassing clouds.14 mph60%30.48 "HgN/A
11:30 AM64 °FPassing clouds.15 mph64%30.48 "HgN/A
11:00 AM63 °FScattered clouds.17 mph73%30.48 "HgN/A
10:30 AM63 °FScattered clouds.14 mph68%30.48 "HgN/A
10:00 AM59 °FScattered clouds.13 mph77%30.48 "HgN/A
9:30 AM59 °FPassing clouds.14 mph77%30.48 "HgN/A
9:00 AM59 °FPassing clouds.14 mph72%30.45 "HgN/A
8:30 AM59 °FPassing clouds.15 mph72%30.45 "HgN/A
8:00 AM59 °FPassing clouds.17 mph72%30.45 "HgN/A
7:30 AM59 °FPassing clouds.16 mph72%30.42 "HgN/A
7:00 AM59 °FPassing clouds.17 mph72%30.42 "HgN/A
6:30 AM59 °FPassing clouds.17 mph68%30.42 "HgN/A
6:00 AM61 °FPassing clouds.17 mph59%30.42 "HgN/A
5:30 AM61 °FPassing clouds.18 mph59%30.42 "HgN/A
5:00 AM61 °FPassing clouds.21 mph59%30.42 "HgN/A
4:30 AM63 °FPassing clouds.17 mph52%30.42 "HgN/A
4:00 AM66 °FPassing clouds.13 mph35%30.42 "HgN/A
3:00 AM66 °FPassing clouds.15 mph28%30.42 "HgN/A
2:30 AM68 °FPassing clouds.15 mph28%30.45 "HgN/A
2:00 AM64 °FPassing clouds.18 mph34%30.45 "HgN/A
1:30 AM66 °FPassing clouds.18 mph35%30.45 "HgN/A
1:00 AM66 °FPassing clouds.17 mph35%30.45 "HgN/A
12:30 AM68 °FPassing clouds.16 mph30%30.45 "HgN/A
12:00 AM64 °FPassing clouds.20 mph37%30.45 "HgN/A
11:30 PM
Sun, Mar 29
63 °FPassing clouds.18 mph49%30.48 "HgN/A
11:00 PM63 °FPassing clouds.22 mph49%30.45 "HgN/A
10:00 PM63 °FPassing clouds.25 mph52%30.39 "HgN/A
9:30 PM68 °FPassing clouds.21 mph35%30.39 "HgN/A
9:00 PM68 °FPassing clouds.18 mph30%30.39 "HgN/A
8:30 PM70 °FPassing clouds.17 mph23%30.39 "HgN/A
8:00 PM70 °FPassing clouds.17 mph27%30.39 "HgN/A
7:30 PM72 °FPassing clouds.18 mph27%30.39 "HgN/A
7:00 PM72 °FPassing clouds.20 mph31%30.39 "HgN/A
6:30 PM73 °FPassing clouds.14 mph19%30.39 "HgN/A
6:00 PM73 °FPassing clouds.15 mph22%30.39 "HgN/A
5:30 PM73 °FPassing clouds.15 mph20%30.39 "HgN/A
5:00 PM73 °FPassing clouds.16 mph22%30.39 "HgN/A
4:30 PM73 °FPassing clouds.18 mph22%30.39 "HgN/A
4:00 PM72 °FPassing clouds.18 mph36%30.39 "HgN/A
3:30 PM72 °FPassing clouds.17 mph31%30.39 "HgN/A
3:00 PM73 °FPassing clouds.16 mph22%30.42 "HgN/A
Weather by CustomWeather, © 2015

See weather overviewHow to use our weather pages